Temperature
15 15 15 15 15 15 14 14 14 13 14 13 14 14 13 13 13 13 13 14 13 13 13 13 12 12 12 12 12 12 12 12 12 12 12 12 12 11 11 11 11 10 10
15 15 15 15 14 14 14 14 13 13 13 13 13 13 13 13 13 13 13 13 13 13 13 12 12 12 12 12 12 12 12 12 12 12 12 12 11 11 11 11 10 10 10
15 14 14 14 14 14 14 14 13 13 13 13 13 13 13 13 13 12 12 13 12 13 13 12 12 12 12 11 11 11 11 11 11 11 11 11 11 11 11 10 10 10 10
14 14 14 14 14 13 13 13 13 13 13 13 13 13 13 13 13 12 12 12 12 12 12 12 12 12 12 11 11 11 10 11 11 11 10 10 10 10 10 10 10 9 9
14 14 14 14 13 13 13 13 13 13 13 13 13 13 13 13 13 13 12 12 12 12 12 12 12 12 11 11 11 11 10 10 10 10 10 10 10 10 10 9 9 9 9
14 14 14 14 13 13 13 13 13 13 13 13 12 13 13 13 13 13 12 12 12 12 12 12 12 12 11 11 11 11 10 10 10 10 9 9 9 9 9 9 8 8 8
14 14 14 14 14 13 13 13 13 13 13 13 12 12 12 12 12 12 12 12 12 12 12 12 11 11 11 11 11 10 10 10 10 9 9 9 9 9 8 8 8 8 8
14 14 14 14 14 13 13 13 13 13 12 12 11 11 11 12 12 12 12 12 12 11 11 11 11 11 11 10 10 10 10 10 10 9 9 9 8 8 8 8 8 7 7
14 14 14 14 13 13 13 13 13 12 12 11 11 11 11 12 11 11 11 11 11 11 10 10 10 10 10 10 10 10 10 10 9 9 9 9 8 8 8 8 7 7 7
13 13 13 13 13 13 13 13 12 12 11 11 11 10 10 10 10 10 10 10 10 10 10 9 9 9 9 9 9 9 9 9 9 9 9 9 8 8 8 7 7 7 7
13 13 13 13 12 12 12 12 11 11 11 10 10 10 9 9 9 9 9 9 9 9 9 9 9 9 8 8 8 9 9 9 8 8 8 8 8 8 8 7 7 7 6
12 12 12 12 12 11 11 11 11 10 10 10 10 9 9 9 9 9 8 8 8 8 8 8 8 8 8 8 8 8 8 8 8 8 8 8 8 8 7 7 7 7 6
11 11 11 11 10 10 10 10 10 10 10 9 9 9 8 8 8 8 8 7 7 7 7 7 7 7 7 7 7 7 7 7 7 7 7 7 7 7 7 7 7 6 6
10 10 10 10 9 9 9 9 9 9 9 9 8 8 8 8 7 7 7 7 6 6 6 6 6 6 6 6 6 6 6 6 6 6 6 6 6 7 7 6 6 6 6
9 9 9 9 9 8 8 8 8 8 8 8 8 7 7 7 7 7 6 6 6 6 6 6 5 5 5 5 6 6 6 6 5 5 6 6 6 6 6 6 6 5 5
8 8 8 8 8 8 8 7 7 7 7 7 7 6 6 6 6 6 6 5 5 5 5 5 5 4 4 5 5 5 5 4 4 4 5 5 5 5 5 5 5 5 4
7 7 7 7 7 7 7 7 6 6 6 6 6 6 6 6 5 5 5 5 5 4 4 4 4 4 4 4 4 4 4 3 3 3 3 3 3 4 3 4 4 4 3
6 6 6 6 6 6 6 6 6 6 5 5 5 5 5 5 5 4 4 4 4 4 3 3 3 3 3 3 3 3 3 2 2 2 2 2 2 3 3 3 3 2 2
5 5 5 5 5 5 5 5 5 5 5 5 4 4 4 4 4 4 4 4 3 3 3 3 2 2 2 2 2 2 2 2 2 2 2 2 2 2 2 2 2 2 2
4 4 4 4 4 4 4 4 4 4 4 4 4 3 3 3 3 3 3 3 3 2 2 2 1 1 1 1 1 1 1 1 1 1 1 1 1 1 1 1 1 1 1
3 4 4 4 4 4 4 3 3 3 3 3 3 3 3 3 3 2 2 2 2 1 1 0 0 -0 -1 -0 -1 -0 -0 -0 -0 -0 -0 -0 -0 0 0 0 0 0 -0
3 3 3 3 3 3 3 3 3 3 3 3 3 2 2 2 2 2 1 1 1 0 0 -0 -1 -2 -2 -2 -2 -2 -2 -2 -3 -2 -1 -1 -1 -1 -1 -1 -1 -1 -1
2 2 2 2 2 2 2 2 2 2 2 2 2 2 2 1 1 1 0 0 -0 -0 -1 -1 -2 -3 -3 -3 -3 -3 -3 -3 -3 -3 -2 -2 -3 -3 -2 -2 -2 -2 -2
1 1 1 1 2 2 2 2 2 2 2 2 2 1 1 1 0 0 -0 -1 -1 -1 -1 -2 -3 -3 -3 -3 -4 -4 -4 -4 -4 -4 -3 -3 -4 -3 -3 -3 -2 -2 -2
1 1 1 1 1 1 1 2 2 1 1 1 1 1 1 0 -0 -0 -1 -1 -2 -2 -2 -2 -3 -3 -3 -4 -4 -4 -5 -5 -5 -5 -4 -4 -4 -4 -3 -3 -3 -3 -3
1 1 1 1 1 1 1 1 1 1 1 1 1 1 0 -0 -0 -1 -1 -2 -2 -3 -3 -3 -3 -4 -4 -4 -4 -5 -5 -5 -6 -6 -6 -5 -5 -5 -4 -4 -4 -4 -4
Wind_Speed
5 5 5 5 5 5 5 5 6 5 6 6 7 7 8 8 9 8 8 9 12 13 14 13 12 11 11 10 9 7 6 5 5 4 3 2 2 1 1 2 2 2 3
5 5 5 6 6 6 6 6 7 6 6 6 7 8 9 9 9 10 10 9 13 15 16 16 15 15 14 13 12 11 10 9 8 7 6 5 4 4 3 2 2 2 2
7 6 6 6 7 7 7 7 8 7 7 7 8 9 9 10 10 11 11 10 10 14 17 18 18 17 17 16 15 14 13 12 11 10 9 8 7 6 5 5 4 3 3
8 7 6 7 8 7 7 6 6 7 7 8 8 8 8 8 11 12 12 11 11 11 13 17 19 19 19 18 18 17 16 16 15 14 13 12 10 9 8 7 6 5 5
9 8 7 8 8 7 7 6 7 7 8 8 8 8 8 9 10 11 12 13 12 12 12 11 16 19 20 19 19 19 19 18 18 17 16 15 14 13 11 10 9 8 7
7 8 8 9 8 6 7 7 8 8 8 8 7 8 9 10 9 10 11 11 10 11 11 11 10 12 17 19 20 20 20 19 19 19 19 18 17 16 15 13 12 11 10
6 7 6 7 7 7 8 9 8 8 7 6 5 7 9 11 10 9 8 8 8 8 8 9 9 9 9 12 17 19 19 20 19 19 21 21 20 19 17 16 15 14 13
5 5 6 6 6 6 8 8 7 6 5 5 5 6 7 8 7 6 6 5 6 5 5 6 7 7 8 8 8 12 15 18 19 19 19 21 21 21 21 19 18 17 16
3 3 5 5 5 6 7 7 7 8 7 6 6 6 6 6 5 4 5 4 4 4 4 4 5 6 7 7 8 8 10 13 17 18 18 19 21 23 24 22 21 19 18
2 2 3 4 5 5 6 7 7 7 8 8 6 7 9 7 6 5 4 4 4 5 5 4 5 5 5 6 6 9 10 11 14 17 18 19 20 21 23 24 23 22 20
2 3 3 3 4 4 5 6 6 6 6 8 7 6 7 7 8 7 8 6 5 4 3 4 4 4 5 5 6 9 10 11 13 15 17 18 19 19 20 22 25 24 22
1 3 4 3 3 3 4 5 5 6 6 7 6 6 6 6 5 6 7 7 6 4 3 2 3 4 5 6 7 11 11 11 12 14 16 17 16 15 15 16 17 19 21
1 3 3 3 3 4 4 4 4 3 4 4 4 4 4 4 4 5 6 6 6 4 2 1 3 5 6 7 8 12 9 11 11 12 13 12 10 9 8 7 10 12 15
1 2 3 3 3 4 4 3 2 2 2 2 2 2 1 2 3 2 3 4 5 4 3 1 3 5 6 7 10 11 9 12 11 10 9 9 7 6 5 4 4 6 8
1 2 2 2 3 4 3 2 2 2 2 2 3 3 2 3 3 3 2 2 3 4 3 1 2 5 7 7 10 9 9 12 12 10 10 9 7 6 5 2 1 4 7
1 1 2 2 3 3 3 2 3 3 4 4 4 5 5 3 3 3 3 2 2 2 2 2 2 4 6 6 8 8 9 11 14 12 10 9 9 9 9 9 7 6 6
1 1 1 2 3 3 3 3 4 4 5 5 5 6 6 5 4 4 4 3 3 2 2 1 2 3 4 5 6 7 8 8 10 13 12 12 11 10 10 9 9 7 6
2 2 2 2 3 3 4 4 5 5 6 6 6 6 6 5 6 5 4 4 3 3 1 0 1 2 3 4 5 5 6 7 8 11 11 11 10 9 8 7 6 4 3
2 2 3 3 3 4 4 5 5 6 6 7 6 7 6 6 6 5 5 4 4 3 2 1 1 2 2 3 3 3 4 5 6 8 8 9 8 8 7 5 4 3 1
3 3 3 4 4 4 4 5 5 6 7 7 7 7 6 6 6 5 5 5 4 3 3 2 1 2 2 2 3 3 3 4 4 5 6 6 6 5 4 4 4 3 3
3 4 4 4 4 4 4 4 5 5 6 6 6 6 7 8 8 7 5 5 4 3 2 2 1 1 2 2 3 3 4 4 2 3 4 4 4 4 3 3 3 4 5
4 4 4 4 4 4 6 6 5 5 5 4 4 4 5 6 7 8 9 8 7 4 3 2 1 2 2 3 3 3 3 4 3 3 5 4 3 3 3 3 4 6 7
5 4 4 4 4 6 7 7 6 4 4 4 3 3 3 3 4 3 4 5 6 6 5 3 2 2 3 3 4 4 4 4 5 5 5 4 3 4 3 4 5 7 8
5 5 4 4 4 5 6 6 6 4 3 3 2 1 1 1 2 3 3 3 3 3 3 3 2 3 3 3 3 4 4 5 6 3 3 3 4 4 5 5 3 5 6
5 4 4 4 3 4 5 6 5 3 2 2 1 0 1 1 2 2 2 2 2 1 1 3 4 4 4 4 5 4 4 4 4 2 1 3 4 5 5 4 2 3 4
5 5 4 4 4 4 5 6 5 2 2 2 1 1 1 3 3 3 3 3 3 3 2 2 3 3 3 2 3 3 3 3 3 3 1 2 3 4 4 3 3 4 5
Wind_Direction
225 226 235 235 242 248 247 253 258 262 265 268 265 267 269 266 266 265 263 242 245 250 254 257 255 248 242 240 240 237 236 236 235 232 232 232 223 190 115 98 91 87 86
234 237 243 243 247 247 253 259 263 268 269 268 270 268 270 271 267 266 267 257 241 244 249 252 254 251 247 240 237 233 231 231 230 227 224 223 221 215 205 183 154 130 115
238 241 249 249 250 250 254 259 265 266 269 269 268 268 269 269 269 269 265 264 258 242 241 246 249 250 249 245 240 235 230 228 226 225 223 221 220 219 217 209 198 185 170
238 244 247 251 254 253 251 253 260 261 262 264 270 273 270 268 269 270 268 261 260 260 246 238 244 248 249 248 246 241 234 227 223 222 222 220 219 219 220 216 211 205 198
240 242 249 255 255 251 250 251 255 259 267 268 271 275 275 272 271 268 266 264 260 259 263 251 240 246 250 251 251 249 244 234 226 222 221 220 218 217 218 218 216 213 210
243 245 250 256 257 251 252 250 254 255 263 273 277 276 274 271 267 266 268 268 264 261 263 268 260 251 245 248 252 253 252 247 235 227 222 221 219 217 216 217 217 217 217
251 249 254 259 255 252 256 258 257 258 258 261 268 275 271 263 261 261 263 269 270 268 267 267 267 270 263 246 248 254 257 256 249 238 228 223 220 218 216 216 217 218 217
268 262 261 263 260 260 260 259 253 255 255 240 250 278 284 276 248 245 254 262 274 275 274 275 274 273 276 276 267 258 261 263 262 255 241 230 225 220 217 215 215 216 216
295 280 276 275 271 265 265 264 256 250 257 250 237 253 274 279 296 246 245 258 270 277 284 294 294 293 290 284 287 280 273 270 269 266 257 244 234 226 220 217 216 216 215
347 325 302 290 281 274 270 271 266 261 260 260 248 241 253 273 276 281 252 249 267 284 294 301 304 306 308 303 301 304 303 289 278 272 267 258 248 237 227 220 217 216 215
26 3 338 316 301 291 284 282 277 267 259 260 259 250 248 250 249 257 272 270 264 272 298 312 321 330 334 328 326 337 329 308 292 283 277 270 262 252 237 229 223 219 217
20 13 354 338 324 314 303 296 286 275 267 265 267 262 259 255 251 251 263 271 274 275 293 338 354 354 353 346 352 353 339 325 311 298 290 283 278 269 256 245 233 222 216
316 356 353 343 336 328 319 309 297 294 290 279 276 274 274 277 284 272 271 276 275 272 256 65 32 17 8 1 1 353 350 346 333 319 308 306 306 302 291 285 243 222 213
348 350 347 347 345 341 335 328 322 330 332 324 328 320 317 345 340 314 288 281 276 266 241 205 62 31 16 8 4 357 1 3 355 349 347 344 341 336 315 308 272 209 207
357 354 355 1 4 3 359 360 13 18 29 35 33 37 39 30 21 11 351 300 271 268 256 64 52 28 14 12 7 5 10 13 14 15 15 12 11 17 22 7 330 202 204
23 9 20 25 26 26 28 43 54 52 67 60 56 63 58 44 42 32 20 11 343 281 263 71 41 16 8 9 10 11 15 17 23 26 30 33 48 57 62 64 79 109 136
57 48 51 54 51 49 52 67 71 73 79 75 69 70 65 55 53 41 36 34 28 352 263 98 52 23 15 13 12 16 20 21 20 29 39 48 52 58 62 65 71 84 110
85 76 79 79 72 66 67 78 82 80 82 79 74 72 65 61 58 46 42 42 36 18 344 247 43 24 23 11 9 17 22 22 24 30 38 44 46 47 52 56 63 73 90
108 99 95 93 87 81 81 83 88 87 83 78 75 73 69 66 61 51 46 40 33 27 22 50 39 24 13 9 0 13 20 19 21 22 28 32 33 31 33 35 36 37 44
118 109 103 99 96 93 91 93 94 94 89 80 73 69 63 60 59 52 46 37 27 30 38 50 45 22 7 359 352 355 355 5 3 8 10 9 11 11 12 6 358 348 327
123 116 114 109 105 102 99 103 102 100 98 90 77 67 61 57 53 48 41 31 25 22 24 30 28 5 7 358 356 350 334 333 343 357 337 339 336 331 331 325 313 302 287
132 126 121 116 111 102 104 101 103 101 98 94 85 75 68 59 54 54 49 42 33 26 20 8 353 351 354 354 348 340 334 331 317 2 333 319 321 312 316 310 318 302 286
144 140 132 129 119 111 113 110 103 106 103 92 86 81 70 56 41 41 47 46 49 45 30 349 340 348 343 344 335 324 329 319 308 330 324 306 317 307 311 302 309 301 288
159 154 147 145 135 127 126 125 122 114 109 101 88 70 57 39 32 9 15 15 20 32 22 356 348 342 332 324 308 297 300 297 290 293 309 295 318 314 313 301 311 312 299
167 165 161 159 157 155 151 150 155 152 147 143 136 13 332 334 1 335 342 342 333 355 31 359 351 343 335 323 310 293 297 302 302 307 330 299 319 319 306 295 301 288 296
174 174 178 187 190 192 183 183 193 197 194 191 206 232 284 307 323 313 302 305 308 320 313 300 288 279 285 293 302 288 288 287 293 299 359 309 314 328 310 295 292 286 278
Height
1574 1575 1575 1575 1575 1575 1575 1575 1575 1575 1574 1574 1573 1572 1572 1571 1570 1569 1568 1566 1566 1565 1564 1564 1563 1562 1561 1560 1559 1558 1557 1556 1555 1554 1553 1553 1553 1552 1552 1552 1552 1552 1552
1573 1573 1573 1574 1574 1574 1574 1574 1574 1573 1573 1572 1571 1570 1569 1569 1567 1566 1565 1564 1563 1562 1562 1561 1560 1559 1559 1558 1557 1556 1555 1554 1553 1552 1552 1551 1551 1551 1551 1551 1551 1551 1551
1571 1571 1572 1572 1572 1572 1571 1571 1571 1571 1570 1569 1569 1568 1567 1566 1565 1564 1562 1561 1560 1559 1558 1557 1557 1556 1556 1555 1554 1553 1552 1552 1551 1550 1550 1550 1549 1549 1550 1550 1550 1550 1550
1569 1569 1569 1570 1570 1569 1569 1569 1568 1568 1567 1566 1566 1565 1563 1562 1561 1560 1559 1557 1556 1555 1554 1553 1553 1552 1552 1551 1551 1550 1549 1548 1548 1548 1548 1547 1547 1547 1547 1548 1548 1548 1549
1566 1566 1566 1567 1567 1566 1566 1565 1565 1564 1564 1563 1562 1560 1559 1558 1557 1555 1554 1553 1552 1551 1550 1549 1548 1548 1547 1547 1546 1546 1546 1545 1544 1544 1544 1545 1544 1545 1545 1545 1546 1546 1547
1563 1563 1563 1563 1563 1562 1562 1562 1561 1560 1559 1559 1557 1556 1554 1553 1552 1551 1550 1549 1547 1546 1545 1544 1543 1542 1542 1542 1542 1541 1541 1542 1541 1540 1540 1541 1541 1541 1542 1542 1543 1544 1544
1559 1559 1559 1559 1559 1558 1558 1557 1556 1555 1555 1554 1552 1550 1549 1548 1546 1545 1545 1544 1543 1542 1540 1539 1539 1538 1537 1536 1536 1536 1536 1537 1537 1536 1536 1536 1537 1537 1538 1539 1540 1540 1541
1555 1555 1555 1554 1554 1553 1553 1552 1551 1550 1550 1549 1548 1547 1545 1545 1542 1540 1540 1539 1539 1538 1537 1535 1534 1533 1532 1532 1531 1531 1531 1531 1531 1532 1531 1531 1532 1532 1533 1534 1535 1536 1537
1550 1550 1550 1549 1549 1548 1547 1547 1546 1545 1545 1544 1544 1544 1543 1540 1539 1537 1536 1535 1535 1534 1533 1532 1530 1529 1528 1527 1526 1526 1526 1525 1525 1526 1526 1526 1527 1527 1528 1529 1530 1531 1533
1545 1545 1544 1544 1543 1542 1542 1541 1540 1540 1539 1538 1538 1537 1538 1537 1536 1534 1533 1532 1531 1530 1529 1528 1526 1525 1523 1522 1521 1521 1520 1520 1520 1520 1520 1521 1521 1522 1522 1523 1524 1525 1527
1540 1540 1539 1538 1538 1537 1536 1535 1535 1534 1533 1533 1532 1532 1532 1531 1531 1530 1528 1528 1527 1526 1525 1523 1522 1521 1519 1518 1516 1515 1515 1514 1514 1514 1515 1515 1515 1516 1516 1517 1518 1519 1521
1535 1534 1534 1533 1532 1531 1530 1530 1529 1528 1528 1527 1527 1527 1526 1526 1526 1525 1524 1523 1522 1522 1520 1519 1518 1516 1515 1513 1512 1511 1510 1509 1509 1509 1509 1509 1509 1510 1510 1511 1512 1513 1515
1530 1529 1529 1528 1527 1526 1525 1525 1524 1523 1523 1522 1522 1521 1521 1520 1520 1520 1519 1518 1518 1517 1516 1515 1513 1512 1511 1509 1508 1507 1506 1505 1504 1504 1504 1504 1503 1504 1504 1505 1506 1507 1509
1526 1525 1524 1523 1522 1521 1521 1520 1519 1518 1518 1517 1516 1516 1515 1515 1515 1514 1515 1515 1514 1513 1512 1511 1509 1508 1507 1506 1504 1503 1502 1501 1500 1499 1499 1499 1499 1499 1499 1500 1501 1503 1505
1521 1521 1520 1519 1518 1517 1516 1515 1514 1514 1513 1512 1511 1511 1510 1510 1510 1509 1509 1510 1511 1509 1509 1507 1506 1505 1503 1502 1501 1500 1498 1497 1496 1495 1495 1495 1495 1494 1495 1495 1497 1499 1501
1517 1517 1516 1515 1514 1513 1512 1511 1510 1510 1509 1508 1507 1507 1506 1506 1505 1505 1505 1505 1505 1506 1505 1503 1502 1501 1500 1499 1498 1496 1495 1494 1493 1492 1492 1492 1491 1491 1491 1492 1493 1494 1496
1514 1513 1512 1511 1510 1509 1508 1508 1507 1506 1506 1505 1504 1504 1503 1503 1502 1502 1501 1501 1501 1501 1501 1500 1499 1498 1497 1496 1494 1493 1493 1492 1491 1490 1490 1489 1489 1489 1489 1490 1490 1491 1493
1510 1510 1509 1508 1507 1506 1506 1505 1504 1503 1503 1503 1502 1501 1501 1500 1500 1499 1499 1498 1498 1498 1498 1497 1496 1495 1494 1493 1492 1491 1490 1489 1489 1488 1488 1487 1487 1487 1487 1488 1488 1489 1490
1507 1506 1506 1505 1504 1504 1503 1502 1502 1501 1501 1500 1500 1499 1499 1498 1498 1497 1497 1496 1495 1495 1494 1494 1493 1492 1491 1490 1489 1488 1488 1487 1486 1486 1485 1485 1485 1485 1485 1485 1486 1486 1487
1504 1504 1503 1502 1502 1502 1501 1501 1500 1500 1499 1499 1498 1498 1497 1496 1496 1495 1495 1494 1493 1493 1492 1491 1490 1490 1489 1488 1487 1486 1485 1485 1484 1483 1483 1482 1482 1481 1481 1482 1482 1482 1483
1502 1501 1501 1500 1500 1500 1500 1499 1499 1499 1498 1498 1497 1497 1496 1495 1494 1494 1493 1492 1491 1491 1490 1489 1488 1488 1487 1486 1485 1484 1483 1482 1481 1480 1480 1479 1478 1478 1477 1477 1477 1477 1478
1499 1499 1499 1499 1499 1499 1498 1498 1498 1498 1497 1497 1496 1496 1495 1494 1493 1492 1491 1490 1489 1489 1488 1487 1486 1486 1485 1484 1483 1482 1481 1480 1479 1478 1477 1476 1475 1474 1473 1473 1473 1473 1473
1497 1498 1498 1498 1498 1498 1498 1497 1497 1497 1497 1496 1495 1494 1494 1493 1492 1491 1489 1488 1487 1486 1486 1486 1485 1484 1482 1481 1480 1479 1478 1478 1477 1475 1474 1473 1472 1471 1470 1469 1469 1469 1468
1496 1496 1496 1497 1497 1497 1497 1496 1496 1496 1496 1495 1494 1493 1492 1491 1490 1489 1488 1487 1486 1484 1483 1483 1482 1481 1480 1479 1478 1478 1476 1475 1474 1473 1472 1471 1470 1469 1467 1466 1465 1465 1465
1494 1494 1495 1495 1496 1496 1496 1495 1495 1495 1494 1494 1493 1492 1491 1490 1489 1487 1486 1485 1484 1483 1482 1480 1480 1479 1477 1477 1476 1475 1474 1473 1472 1472 1470 1469 1467 1466 1465 1463 1462 1462 1461
1492 1493 1493 1494 1494 1494 1494 1494 1494 1493 1493 1492 1491 1490 1489 1488 1487 1485 1484 1483 1482 1481 1480 1478 1477 1476 1475 1474 1473 1473 1472 1471 1470 1469 1468 1467 1465 1464 1462 1461 1460 1459 1458